TimeEEST,TemperatureF,Dew PointF,Humidity,Sea Level PressureIn,VisibilityMPH,Wind Direction,Wind SpeedMPH,Gust SpeedMPH,PrecipitationIn,Events,Conditions,WindDirDegrees,DateUTC
12:50 AM,50.0,35.6,58,30.33,6.2,NE,3.5,-,N/A,,Partly Cloudy,50,2012-10-01 21:50:00
1:50 AM,50.0,35.6,58,30.36,6.2,SE,3.5,-,N/A,,Partly Cloudy,130,2012-10-01 22:50:00
2:50 AM,50.0,37.4,62,30.33,6.2,ESE,3.5,-,N/A,,Partly Cloudy,120,2012-10-01 23:50:00
3:00 AM,49,36,51,,6,ESE,3.5,,,,Scattered Clouds,120,2012-10-02 00:00:00
3:50 AM,48.2,41.0,76,30.33,6.2,ESE,3.5,-,N/A,,Partly Cloudy,110,2012-10-02 00:50:00
4:50 AM,48.2,33.8,58,30.36,6.2,ENE,2.3,-,N/A,,Partly Cloudy,60,2012-10-02 01:50:00
5:50 AM,50.0,33.8,54,30.36,6.2,Variable,2.3,-,N/A,,Partly Cloudy,0,2012-10-02 02:50:00
6:50 AM,57.2,41.0,55,30.36,6.2,East,3.5,-,N/A,,Partly Cloudy,100,2012-10-02 03:50:00
7:50 AM,62.6,41.0,45,30.36,6.2,Variable,1.2,-,N/A,,Partly Cloudy,0,2012-10-02 04:50:00
8:50 AM,66.2,41.0,40,30.39,6.2,West,3.5,-,N/A,,Partly Cloudy,280,2012-10-02 05:50:00
9:00 AM,66,40,27,,6,West,3.5,,,,Scattered Clouds,280,2012-10-02 06:00:00
9:50 AM,68.0,39.2,35,30.39,6.2,West,4.6,-,N/A,,Partly Cloudy,270,2012-10-02 06:50:00
10:50 AM,68.0,41.0,37,30.36,6.2,West,5.8,-,N/A,,Partly Cloudy,270,2012-10-02 07:50:00
11:50 AM,69.8,39.2,33,30.36,6.2,West,5.8,-,N/A,,Partly Cloudy,280,2012-10-02 08:50:00
12:50 PM,71.6,42.8,35,30.33,6.2,West,5.8,-,N/A,,Partly Cloudy,270,2012-10-02 09:50:00
1:50 PM,71.6,48.2,43,30.33,6.2,West,6.9,-,N/A,,Partly Cloudy,260,2012-10-02 10:50:00
2:50 PM,69.8,46.4,43,30.30,6.2,West,6.9,-,N/A,,Partly Cloudy,260,2012-10-02 11:50:00
3:00 PM,71,46,30,,6,West,6.9,,,,Scattered Clouds,260,2012-10-02 12:00:00
3:50 PM,69.8,48.2,46,30.30,6.2,West,5.8,-,N/A,,Partly Cloudy,270,2012-10-02 12:50:00
4:50 PM,68.0,48.2,49,30.30,6.2,Variable,2.3,-,N/A,,Partly Cloudy,0,2012-10-02 13:50:00
5:50 PM,64.4,50.0,59,30.30,6.2,Variable,1.2,-,N/A,,Partly Cloudy,0,2012-10-02 14:50:00
6:50 PM,59.0,48.2,67,30.30,6.2,Variable,1.2,-,N/A,,Partly Cloudy,0,2012-10-02 15:50:00
7:50 PM,55.4,42.8,63,30.30,6.2,East,2.3,-,N/A,,Partly Cloudy,90,2012-10-02 16:50:00
8:50 PM,55.4,33.8,44,30.30,6.2,Variable,2.3,-,N/A,,Partly Cloudy,0,2012-10-02 17:50:00
9:00 PM,56,34,31,,6,ENE,2.3,,,,Scattered Clouds,60,2012-10-02 18:00:00
9:50 PM,53.6,37.4,54,30.30,6.2,ENE,3.5,-,N/A,,Partly Cloudy,70,2012-10-02 18:50:00
10:50 PM,55.4,28.4,36,30.30,6.2,Variable,1.2,-,N/A,,Partly Cloudy,0,2012-10-02 19:50:00
11:50 PM,55.4,37.4,51,30.30,6.2,Variable,1.2,-,N/A,,Partly Cloudy,0,2012-10-02 20:50:00